Flag for U.S.A. Weather past 2 weeks in Toledo, Ohio, U.S.A.

Now
52 °F

Sunny.


Feels Like: 49 °F
Forecast: 39 / 53 °F
Wind: 7 mph from East

Location: Toledo Suburban Airport


UV Index: 5 (Moderate)

Visibility: 10 mi


Pressure: 30.25 "Hg

Humidity: 72%

Dew point: 43 °F

Location of ToledoLocation

Historic Weather in Toledo

°F

Toledo temperature yesterday

Maximum temperature yesterday: 68 °F (at 4:35 PM)
Minimum temperature yesterday: 36 °F (at 6:35 AM)
Average temperature yesterday: 52 °F

Past Weeks' High & Low Weather Summary

 TemperatureHumidityPressure
High77 °F (Apr 13, 2:55 PM)100% (Apr 4, 8:55 AM)30.45 "Hg (Apr 4, 8:55 AM)
Low23 °F (Apr 16, 3:35 AM)22% (Apr 12, 1:35 PM)29.45 "Hg (Apr 4, 12:55 PM)
Average48 °F61%29.95 "Hg
* Reported Apr 3 7:15 PM — Apr 18 7:55 PM, Toledo, Weather by CustomWeather, © 2014

Note: Actual official high and low records may vary slightly from our data, if they occured in-between our weather recording intervals... More about our weather records

Advertising

Historic Weather Conditions — Data for Previous 24 hours

 ConditionsComfort  
Time TempWeatherWind HumidityBarometerVisibility
7:55 PM
Apr 18
54 °FSunny.7 mph67%30.24 "Hg10 mi
7:35 PM55 °FSunny.6 mph63%30.24 "Hg10 mi
7:15 PM55 °FSunny.10 mph59%30.23 "Hg10 mi
6:55 PM57 °FSunny.7 mph55%30.23 "Hg10 mi
6:35 PM59 °FSunny.8 mph51%30.23 "Hg10 mi
6:15 PM66 °FSunny.8 mph30%30.23 "Hg10 mi
5:55 PM68 °FScattered clouds.8 mph30%30.22 "Hg10 mi
5:35 PM66 °FScattered clouds.7 mph32%30.22 "Hg10 mi
5:15 PM66 °FScattered clouds.8 mph35%30.22 "Hg10 mi
4:55 PM66 °FScattered clouds.8 mph35%30.23 "Hg10 mi
4:35 PM68 °FScattered clouds.10 mph33%30.23 "Hg10 mi
4:15 PM66 °FBroken clouds.12 mph37%30.23 "Hg10 mi
3:55 PM66 °FScattered clouds.9 mph40%30.24 "Hg10 mi
3:35 PM64 °FScattered clouds.9 mph43%30.24 "Hg10 mi
3:15 PM66 °FScattered clouds.12 mph40%30.25 "Hg10 mi
2:55 PM64 °FScattered clouds.12 mph43%30.25 "Hg10 mi
2:35 PM64 °FScattered clouds.13 mph43%30.26 "Hg10 mi
2:15 PM64 °FMore clouds than sun.8 mph43%30.26 "Hg10 mi
1:55 PM63 °FMostly cloudy.10 mph45%30.26 "Hg10 mi
1:35 PM63 °FCloudy.10 mph45%30.26 "Hg10 mi
1:15 PM63 °FCloudy.10 mph45%30.27 "Hg10 mi
12:55 PM61 °FMore clouds than sun.7 mph48%30.27 "Hg10 mi
12:35 PM61 °FMostly cloudy.8 mph45%30.28 "Hg10 mi
11:55 AM59 °FOvercast.6 mph51%30.28 "Hg10 mi
11:35 AM59 °FCloudy.3 mph51%30.27 "Hg10 mi
10:55 AM59 °FMostly cloudy.No wind51%30.27 "Hg10 mi
10:35 AM61 °FMore clouds than sun.3 mph48%30.27 "Hg10 mi
10:15 AM59 °FBroken clouds.No wind51%30.28 "Hg10 mi
9:55 AM55 °FBroken clouds.No wind59%30.27 "Hg10 mi
9:35 AM54 °FMore clouds than sun.3 mph58%30.28 "Hg10 mi
8:55 AM50 °FMostly cloudy.No wind67%30.29 "Hg10 mi
8:35 AM48 °FOvercast.No wind71%30.29 "Hg10 mi
8:15 AM46 °FOvercast.No wind82%30.29 "Hg10 mi
7:55 AM45 °FScattered clouds.No wind81%30.28 "Hg10 mi
7:35 AM45 °FClear.No wind76%30.28 "Hg10 mi
7:15 AM45 °FClear.No wind76%30.27 "Hg10 mi
6:55 AM45 °FClear.No wind76%30.28 "Hg10 mi
6:35 AM43 °FClear.No wind81%30.27 "Hg10 mi
6:15 AM43 °FClear.No wind76%30.26 "Hg10 mi
5:55 AM45 °FClear.No wind71%30.25 "Hg10 mi
5:35 AM45 °FClear.No wind76%30.24 "Hg10 mi
5:15 AM45 °FClear.No wind76%30.24 "Hg10 mi
4:55 AM46 °FClear.No wind71%30.23 "Hg10 mi
4:35 AM46 °FClear.No wind66%30.23 "Hg10 mi
4:15 AM48 °FClear.No wind62%30.23 "Hg10 mi
3:55 AM52 °FClear.3 mph54%30.23 "Hg10 mi
3:35 AM52 °FClear.3 mph54%30.23 "Hg10 mi
3:15 AM52 °FClear.6 mph54%30.23 "Hg10 mi
2:55 AM52 °FClear.5 mph54%30.23 "Hg10 mi
2:35 AM54 °FClear.6 mph51%30.23 "Hg10 mi
2:15 AM54 °FClear.6 mph51%30.23 "Hg10 mi
1:55 AM54 °FClear.6 mph51%30.24 "Hg10 mi
1:35 AM54 °FClear.6 mph51%30.25 "Hg10 mi
1:15 AM54 °FClear.5 mph51%30.25 "Hg10 mi
12:55 AM50 °FClear.5 mph58%30.25 "Hg10 mi
12:35 AM52 °FClear.5 mph54%30.25 "Hg10 mi
12:15 AM50 °FClear.3 mph58%30.25 "Hg10 mi
11:55 PM
Apr 17
52 °FClear.No wind54%30.25 "Hg10 mi
11:35 PM52 °FClear.No wind50%30.25 "Hg10 mi
11:15 PM54 °FClear.3 mph47%30.26 "Hg10 mi
10:55 PM57 °FClear.3 mph39%30.27 "Hg10 mi
10:35 PM59 °FClear.3 mph36%30.27 "Hg10 mi
10:15 PM59 °FClear.5 mph36%30.27 "Hg10 mi
9:55 PM61 °FClear.5 mph34%30.26 "Hg10 mi
9:35 PM61 °FClear.6 mph34%30.26 "Hg10 mi
9:15 PM61 °FSunny.6 mph34%30.25 "Hg10 mi
Weather by CustomWeather, © 2014

See weather overview